カタリナ彗星

C/2013 J6 ( Catalina )

English version
Home page
Updated on August 8, 2015

---------------------------------------------------------------------

・ プロフィール

発見日 2013年5月9日
発見光度 19.3等
発見者 R. A. Kowalski (Catalina Sky Survey)

・ 写真集

・ 軌道要素

Epoch 2013 Apr. 18.0 TT = JDT 2456400.5
T 2013 Apr.  9.55214 TT                                 MPC
q   2.4156497            (2000.0)            P               Q
z  +0.0167998      Peri.  125.64075     -0.27945917     -0.25215608
 +/-0.0000000      Node    68.42215     -0.79557157     -0.47940170
e   0.9594175      Incl.   85.05360     +0.53755786     -0.84058987
From 126 observations 2013 May 9-July 9, mean residual 0".5.

・ 光度変化

        m1 = 14.0 + 5 logΔ + 10.0 log r

---------------------------------------------------------------------

軌道要素はM.P.E.C. 2013-Q14に掲載されたものです。
光度グラフはComet for Windowsで作成したものです。

---------------------------------------------------------------------

Copyright(C) Seiichi Yoshida (comet@aerith.net). All rights reserved.